Skip to main content

Corvo (Aeródromo)

ID 1200502 · 39.6739, -31.1136 map

Latest reading · 2026-05-09 19:00 (Europe/Lisbon)

Temperature
14.7 °C
Humidity
72 %
Pressure
1,024.3 hPa
Precipitation
0.1 mm
Radiation
1,051 W/m²
Wind speed
13.7 km/h
Wind direction
NW · North-west

24-hour history

Time (Europe/Lisbon) Temp Humidity Pressure Rain Wind Dir
2026-05-09 19:00 14.7 °C 72 % 1,024.3 0.1 mm 13.7 km/h NW
2026-05-09 18:00 15.4 °C 61 % 1,024.3 0.0 mm 16.2 km/h N
2026-05-09 17:00 15.6 °C 56 % 1,024.4 0.0 mm 12.6 km/h N
2026-05-09 16:00 15.7 °C 54 % 1,024.4 0.0 mm 10.8 km/h N
2026-05-09 15:00 15.3 °C 55 % 1,024.5 0.0 mm 14.0 km/h N
2026-05-09 14:00 15.4 °C 50 % 1,024.5 0.0 mm 12.2 km/h N
2026-05-09 13:00 14.9 °C 49 % 1,024.4 0.0 mm 16.2 km/h N
2026-05-09 12:00 14.3 °C 48 % 1,024.5 0.0 mm 15.1 km/h N
2026-05-09 11:00 13.8 °C 53 % 1,024.3 0.0 mm 16.9 km/h NE
2026-05-09 10:00 13.4 °C 62 % 1,024.0 0.1 mm 20.5 km/h N
2026-05-09 09:00 13.7 °C 59 % 1,023.4 0.0 mm 15.5 km/h NE
2026-05-09 08:00 13.3 °C 64 % 1,022.7 0.0 mm 12.2 km/h N
2026-05-09 07:00 13.7 °C 61 % 1,022.6 0.0 mm 11.2 km/h N
2026-05-09 06:00 13.5 °C 55 % 1,022.8 0.0 mm 9.4 km/h N
2026-05-09 05:00 13.3 °C 56 % 1,023.0 0.0 mm 16.2 km/h NE
2026-05-09 04:00 13.4 °C 57 % 1,023.3 0.0 mm 15.8 km/h N
2026-05-09 03:00 14.0 °C 64 % 1,023.3 0.0 mm 20.5 km/h NE
2026-05-09 02:00 14.3 °C 67 % 1,023.4 0.0 mm 16.6 km/h NE
2026-05-09 01:00 14.6 °C 66 % 1,023.5 0.0 mm 16.2 km/h NE
2026-05-09 00:00 14.7 °C 66 % 1,023.3 0.0 mm 13.0 km/h NE
2026-05-08 23:00 14.9 °C 66 % 1,022.6 0.0 mm 11.5 km/h N
2026-05-08 22:00 15.2 °C 67 % 1,022.2 0.0 mm 13.3 km/h N
2026-05-08 21:00 15.7 °C 66 % 1,021.8 0.0 mm 10.4 km/h N
2026-05-08 20:00 16.3 °C 64 % 1,021.4 0.0 mm 18.4 km/h NW